| time (UTC) | temp F | wind direction | speed knots | gust knots | rain 1hr in | rain 24hr in | rain mn in | humidity % | barometer mb |
| 20260507120904 | 38 | 46 | 0.0 | 0.0 | 0.00 | 0.19 | 0.00 | 92 | 1012.8 |
| 20260507120404 | 38 | 45 | 0.0 | 0.0 | 0.00 | 0.19 | 0.00 | 92 | 1013.0 |
| 20260507115904 | 38 | 46 | 0.0 | 0.0 | 0.00 | 0.20 | 0.00 | 92 | 1013.0 |
| 20260507115404 | 38 | 46 | 0.0 | 0.0 | 0.00 | 0.20 | 0.00 | 92 | 1012.9 |
| 20260507114904 | 38 | 46 | 0.0 | 0.0 | 0.00 | 0.20 | 0.00 | 92 | 1012.9 |
| 20260507114404 | 38 | 46 | 0.0 | 0.0 | 0.00 | 0.20 | 0.00 | 92 | 1012.9 |
| 20260507113904 | 38 | 46 | 0.0 | 0.9 | 0.00 | 0.20 | 0.00 | 92 | 1012.9 |
| 20260507113404 | 38 | 63 | 0.0 | 0.9 | 0.00 | 0.20 | 0.00 | 92 | 1012.8 |
| 20260507112904 | 38 | 63 | 0.0 | 0.9 | 0.00 | 0.21 | 0.00 | 92 | 1012.7 |
| 20260507112404 | 38 | 95 | 0.0 | 1.7 | 0.00 | 0.21 | 0.00 | 92 | 1012.7 |
| 20260507111905 | 38 | 88 | 0.0 | 0.9 | 0.00 | 0.21 | 0.00 | 92 | 1012.6 |
| 20260507111404 | 38 | 88 | 0.0 | 0.9 | 0.00 | 0.21 | 0.00 | 92 | 1012.6 |
| 20260507110903 | 38 | 92 | 0.0 | 0.0 | 0.00 | 0.21 | 0.00 | 92 | 1012.5 |
| 20260507110404 | 38 | 92 | 0.0 | 0.0 | 0.00 | 0.21 | 0.00 | 92 | 1012.3 |
| 20260507105404 | 37 | 92 | 0.0 | 0.0 | 0.00 | 0.22 | 0.00 | 92 | 1012.2 |
| 20260507104903 | 37 | 92 | 0.0 | 0.0 | 0.00 | 0.22 | 0.00 | 92 | 1012.2 |
| 20260507103903 | 38 | 92 | 0.0 | 0.0 | 0.00 | 0.22 | 0.00 | 92 | 1012.1 |
| 20260507103403 | 38 | 92 | 0.0 | 0.0 | 0.00 | 0.22 | 0.00 | 92 | 1011.8 |
| 20260507102903 | 38 | 92 | 0.0 | 0.0 | 0.00 | 0.22 | 0.00 | 92 | 1011.8 |
| 20260507102403 | 39 | 92 | 0.0 | 0.0 | 0.00 | 0.23 | 0.00 | 92 | 1011.9 |
| 20260507101903 | 39 | 92 | 0.0 | 0.9 | 0.00 | 0.23 | 0.00 | 92 | 1011.8 |
| 20260507100903 | 39 | 92 | 0.0 | 0.0 | 0.00 | 0.24 | 0.00 | 92 | 1012.0 |
| 20260507100403 | 39 | 92 | 0.0 | 0.0 | 0.00 | 0.24 | 0.00 | 92 | 1012.1 |
| 20260507095903 | 39 | 92 | 0.0 | 0.0 | 0.00 | 0.24 | 0.00 | 92 | 1012.1 |
| 20260507095403 | 39 | 92 | 0.0 | 0.0 | 0.00 | 0.25 | 0.00 | 92 | 1012.1 |
| 20260507094903 | 40 | 92 | 0.0 | 0.0 | 0.00 | 0.25 | 0.00 | 92 | 1012.1 |
| 20260507094403 | 40 | 92 | 0.0 | 0.0 | 0.00 | 0.25 | 0.00 | 92 | 1012.0 |
| 20260507093903 | 40 | 92 | 0.0 | 0.0 | 0.00 | 0.26 | 0.00 | 92 | 1011.8 |
| 20260507093403 | 40 | 92 | 0.0 | 0.0 | 0.00 | 0.26 | 0.00 | 92 | 1012.1 |
| 20260507092904 | 40 | 92 | 0.0 | 0.0 | 0.00 | 0.26 | 0.00 | 92 | 1012.1 |
| 20260507091903 | 40 | 92 | 0.0 | 0.0 | 0.00 | 0.27 | 0.00 | 92 | 1011.9 |
| 20260507091403 | 40 | 92 | 0.0 | 0.0 | 0.00 | 0.27 | 0.00 | 92 | 1011.8 |
| 20260507090903 | 40 | 92 | 0.0 | 0.0 | 0.00 | 0.28 | 0.00 | 92 | 1011.8 |
| 20260507090403 | 40 | 92 | 0.0 | 0.0 | 0.00 | 0.29 | 0.00 | 92 | 1012.0 |
| 20260507085904 | 40 | 92 | 0.0 | 0.0 | 0.00 | 0.29 | 0.00 | 92 | 1012.0 |
| 20260507085404 | 40 | 92 | 0.0 | 0.0 | 0.00 | 0.29 | 0.00 | 92 | 1012.0 |
| 20260507084904 | 40 | 92 | 0.0 | 0.0 | 0.00 | 0.30 | 0.00 | 92 | 1011.9 |
| 20260507084404 | 40 | 92 | 0.0 | 0.0 | 0.00 | 0.30 | 0.00 | 92 | 1012.0 |
| 20260507083903 | 40 | 92 | 0.0 | 0.0 | 0.00 | 0.31 | 0.00 | 92 | 1012.0 |
| 20260507083403 | 40 | 92 | 0.0 | 0.0 | 0.00 | 0.32 | 0.00 | 92 | 1011.9 |
| 20260507082904 | 40 | 92 | 0.0 | 0.0 | 0.00 | 0.32 | 0.00 | 92 | 1012.0 |
| 20260507082404 | 39 | 107 | 0.0 | 0.0 | 0.00 | 0.32 | 0.00 | 92 | 1012.1 |
| 20260507081904 | 39 | 107 | 0.0 | 0.0 | 0.00 | 0.33 | 0.00 | 92 | 1012.1 |
| 20260507081404 | 39 | 107 | 0.0 | 0.0 | 0.00 | 0.34 | 0.00 | 92 | 1012.0 |
| 20260507080903 | 39 | 107 | 0.0 | 0.0 | 0.00 | 0.34 | 0.00 | 92 | 1012.1 |
| 20260507080403 | 38 | 107 | 0.0 | 0.0 | 0.00 | 0.34 | 0.00 | 92 | 1012.0 |
| 20260507075404 | 38 | 107 | 0.0 | 0.0 | 0.00 | 0.36 | 0.00 | 92 | 1011.9 |
| 20260507074904 | 38 | 107 | 0.0 | 0.0 | 0.00 | 0.36 | 0.00 | 92 | 1011.8 |
| 20260507074404 | 38 | 107 | 0.0 | 0.0 | 0.00 | 0.37 | 0.00 | 92 | 1011.8 |
| 20260507073404 | 38 | 164 | 0.0 | 0.9 | 0.00 | 0.37 | 0.00 | 92 | 1011.5 |
| 20260507072903 | 38 | 205 | 0.0 | 0.0 | 0.00 | 0.38 | 0.00 | 92 | 1011.7 |
| 20260507072403 | 38 | 205 | 0.0 | 0.0 | 0.00 | 0.38 | 0.00 | 91 | 1011.7 |
| 20260507071903 | 38 | 205 | 0.0 | 0.0 | 0.00 | 0.39 | 0.00 | 91 | 1011.8 |
| 20260507070903 | 39 | 200 | 0.0 | 0.0 | 0.00 | 0.40 | 0.00 | 92 | 1011.8 |
| 20260507070403 | 39 | 200 | 0.0 | 0.0 | 0.00 | 0.40 | 0.00 | 91 | 1011.7 |
| 20260507065903 | 39 | 200 | 0.0 | 0.0 | 0.00 | 0.41 | 0.00 | 91 | 1011.8 |
| 20260507065403 | 39 | 200 | 0.0 | 0.0 | 0.00 | 0.42 | 0.00 | 91 | 1011.9 |
| 20260507064903 | 39 | 200 | 0.0 | 0.0 | 0.00 | 0.42 | 0.00 | 91 | 1012.0 |
| 20260507063904 | 40 | 200 | 0.0 | 0.0 | 0.00 | 0.43 | 0.00 | 91 | 1012.0 |
| 20260507063404 | 40 | 200 | 0.0 | 0.0 | 0.00 | 0.44 | 0.00 | 92 | 1012.1 |
| 20260507062904 | 40 | 200 | 0.0 | 0.0 | 0.00 | 0.44 | 0.00 | 92 | 1012.1 |
| 20260507062404 | 40 | 200 | 0.0 | 0.0 | 0.00 | 0.44 | 0.00 | 92 | 1012.2 |
| 20260507061903 | 40 | 200 | 0.0 | 0.0 | 0.00 | 0.45 | 0.00 | 91 | 1012.1 |
| 20260507061404 | 41 | 200 | 0.0 | 0.0 | 0.00 | 0.45 | 0.00 | 91 | 1012.2 |
| 20260507060903 | 41 | 200 | 0.0 | 0.0 | 0.00 | 0.45 | 0.00 | 92 | 1012.2 |
| 20260507060403 | 41 | 200 | 0.0 | 0.0 | 0.00 | 0.45 | 0.00 | 92 | 1012.1 |
| 20260507055904 | 41 | 200 | 0.0 | 0.9 | 0.00 | 0.46 | 0.00 | 92 | 1012.1 |
| 20260507055403 | 41 | 209 | 0.0 | 0.9 | 0.00 | 0.46 | 0.00 | 92 | 1012.1 |
| 20260507054904 | 41 | 213 | 0.0 | 0.0 | 0.00 | 0.47 | 0.00 | 92 | 1012.3 |
| 20260507054404 | 41 | 213 | 0.0 | 0.0 | 0.00 | 0.47 | 0.00 | 92 | 1012.2 |
| 20260507053904 | 41 | 213 | 0.0 | 0.9 | 0.00 | 0.48 | 0.00 | 92 | 1012.3 |
| 20260507053404 | 41 | 213 | 0.0 | 0.0 | 0.00 | 0.48 | 0.00 | 92 | 1012.3 |
| 20260507052403 | 41 | 213 | 0.0 | 0.0 | 0.00 | 0.50 | 0.00 | 92 | 1012.3 |
| 20260507051903 | 41 | 213 | 0.0 | 0.0 | 0.00 | 0.50 | 0.00 | 92 | 1012.4 |
| 20260507051404 | 41 | 213 | 0.0 | 0.9 | 0.00 | 0.51 | 0.00 | 91 | 1012.5 |
| 20260507050403 | 41 | 310 | 0.0 | 0.0 | 0.00 | 0.53 | 0.00 | 91 | 1012.5 |
| 20260507045903 | 41 | 310 | 0.0 | 0.0 | 0.00 | 0.54 | 0.00 | 91 | 1012.5 |
| 20260507045403 | 41 | 310 | 0.0 | 0.0 | 0.00 | 0.55 | 0.00 | 91 | 1012.6 |
| 20260507044904 | 41 | 310 | 0.0 | 0.0 | 0.00 | 0.56 | 0.00 | 91 | 1012.7 |
| 20260507043903 | 41 | 310 | 0.0 | 0.0 | 0.00 | 0.57 | 0.00 | 91 | 1012.6 |
| 20260507042903 | 41 | 310 | 0.0 | 0.0 | 0.00 | 0.58 | 0.00 | 91 | 1012.7 |
| 20260507041403 | 41 | 310 | 0.0 | 0.0 | 0.00 | 0.58 | 0.00 | 91 | 1012.7 |
| 20260507040904 | 41 | 310 | 0.0 | 0.0 | 0.00 | 0.58 | 0.00 | 91 | 1012.6 |
| 20260507040403 | 41 | 310 | 0.0 | 0.0 | 0.00 | 0.58 | 0.00 | 91 | 1012.5 |
| 20260507035904 | 41 | 310 | 0.0 | 0.0 | 0.00 | 0.58 | 0.58 | 91 | 1012.5 |
| 20260507035403 | 41 | 310 | 0.0 | 0.0 | 0.00 | 0.58 | 0.58 | 91 | 1012.4 |
| 20260507034903 | 41 | 309 | 0.0 | 0.9 | 0.00 | 0.58 | 0.58 | 91 | 1012.6 |
| 20260507034404 | 41 | 258 | 0.0 | 0.0 | 0.00 | 0.58 | 0.58 | 91 | 1012.5 |
| 20260507033904 | 41 | 258 | 0.0 | 0.0 | 0.00 | 0.59 | 0.58 | 91 | 1012.5 |
| 20260507033404 | 41 | 258 | 0.0 | 0.0 | 0.00 | 0.59 | 0.58 | 91 | 1012.4 |
| 20260507032904 | 41 | 258 | 0.0 | 0.0 | 0.00 | 0.59 | 0.58 | 91 | 1012.4 |
| 20260507032403 | 41 | 259 | 0.0 | 0.0 | 0.00 | 0.60 | 0.58 | 91 | 1012.5 |
| 20260507031903 | 41 | 257 | 0.0 | 0.0 | 0.00 | 0.60 | 0.58 | 91 | 1012.6 |
| 20260507031403 | 42 | 257 | 0.0 | 0.0 | 0.00 | 0.61 | 0.58 | 91 | 1012.6 |
| 20260507030904 | 42 | 258 | 0.0 | 0.0 | 0.00 | 0.61 | 0.58 | 91 | 1012.6 |
| 20260507030404 | 42 | 260 | 0.0 | 0.9 | 0.00 | 0.62 | 0.58 | 91 | 1012.5 |
| 20260507025903 | 42 | 255 | 0.0 | 0.9 | 0.00 | 0.62 | 0.58 | 91 | 1012.4 |
| 20260507024904 | 42 | 249 | 0.0 | 0.9 | 0.00 | 0.63 | 0.58 | 91 | 1012.4 |
| 20260507024404 | 42 | 264 | 0.0 | 0.9 | 0.00 | 0.64 | 0.58 | 91 | 1012.4 |
| 20260507023904 | 42 | 265 | 0.9 | 2.6 | 0.00 | 0.64 | 0.58 | 91 | 1012.3 |
| 20260507023404 | 42 | 282 | 0.9 | 2.6 | 0.00 | 0.64 | 0.58 | 91 | 1012.3 |
| 20260507022903 | 42 | 271 | 0.9 | 2.6 | 0.00 | 0.65 | 0.58 | 91 | 1012.4 |
| 20260507022403 | 42 | 275 | 0.9 | 2.6 | 0.00 | 0.65 | 0.58 | 91 | 1012.4 |
| 20260507021904 | 42 | 268 | 0.9 | 2.6 | 0.00 | 0.65 | 0.58 | 91 | 1012.4 |
| 20260507020904 | 42 | 285 | 0.9 | 2.6 | 0.00 | 0.66 | 0.58 | 91 | 1012.6 |
| 20260507014903 | 41 | 270 | 0.9 | 1.7 | 0.00 | 0.66 | 0.58 | 91 | 1012.6 |
| 20260507014403 | 41 | 275 | 0.0 | 0.9 | 0.00 | 0.66 | 0.58 | 91 | 1012.6 |
| 20260507013904 | 41 | 278 | 0.0 | 0.9 | 0.00 | 0.66 | 0.58 | 91 | 1012.7 |
| 20260507013404 | 41 | 254 | 0.0 | 0.9 | 0.00 | 0.67 | 0.58 | 91 | 1012.5 |
| 20260507012404 | 42 | 257 | 0.0 | 0.9 | 0.00 | 0.67 | 0.58 | 91 | 1012.3 |
| 20260507011903 | 42 | 257 | 0.0 | 0.0 | 0.00 | 0.67 | 0.58 | 91 | 1012.4 |
| 20260507011403 | 42 | 256 | 0.0 | 0.9 | 0.00 | 0.67 | 0.58 | 91 | 1012.3 |
| 20260507010903 | 42 | 239 | 0.0 | 0.0 | 0.00 | 0.67 | 0.58 | 91 | 1012.1 |
| 20260507005904 | 42 | 240 | 0.0 | 0.9 | 0.00 | 0.68 | 0.58 | 91 | 1012.2 |
| 20260507005404 | 42 | 224 | 0.0 | 0.9 | 0.00 | 0.68 | 0.58 | 91 | 1012.1 |
| 20260507004904 | 42 | 290 | 0.0 | 0.9 | 0.00 | 0.69 | 0.58 | 91 | 1012.1 |
| 20260507004403 | 42 | 291 | 0.0 | 0.0 | 0.00 | 0.70 | 0.58 | 91 | 1012.1 |
| 20260507003903 | 41 | 291 | 0.0 | 0.0 | 0.00 | 0.71 | 0.58 | 90 | 1011.9 |
| 20260507003403 | 42 | 291 | 0.0 | 0.0 | 0.00 | 0.72 | 0.58 | 90 | 1011.9 |
| 20260507002904 | 42 | 291 | 0.0 | 0.0 | 0.00 | 0.74 | 0.58 | 90 | 1011.7 |
| 20260507002403 | 42 | 291 | 0.0 | 0.0 | 0.00 | 0.75 | 0.58 | 90 | 1011.8 |
| 20260507001904 | 42 | 291 | 0.0 | 0.0 | 0.00 | 0.75 | 0.58 | 90 | 1011.8 |
| 20260507001404 | 42 | 291 | 0.0 | 0.0 | 0.00 | 0.76 | 0.58 | 90 | 1011.8 |
| 20260507000405 | 42 | 288 | 0.9 | 1.7 | 0.00 | 0.78 | 0.58 | 90 | 1011.8 |
| 20260506235904 | 42 | 293 | 0.9 | 1.7 | 0.00 | 0.79 | 0.58 | 90 | 1011.7 |
| 20260506235404 | 42 | 342 | 0.0 | 2.6 | 0.00 | 0.80 | 0.58 | 90 | 1011.7 |
| 20260506234904 | 42 | 343 | 0.9 | 2.6 | 0.00 | 0.81 | 0.58 | 90 | 1011.7 |
| 20260506234404 | 42 | 16 | 1.7 | 5.2 | 0.00 | 0.81 | 0.58 | 90 | 1011.7 |
| 20260506233904 | 42 | 352 | 0.9 | 2.6 | 0.00 | 0.81 | 0.58 | 90 | 1011.7 |
| 20260506233404 | 42 | 6 | 0.9 | 2.6 | 0.00 | 0.82 | 0.58 | 91 | 1011.7 |
| 20260506232903 | 42 | 339 | 2.6 | 5.2 | 0.00 | 0.82 | 0.58 | 90 | 1011.6 |
| 20260506232404 | 42 | 20 | 1.7 | 7.0 | 0.00 | 0.83 | 0.58 | 90 | 1011.5 |
| 20260506231903 | 42 | 8 | 3.5 | 6.1 | 0.00 | 0.84 | 0.58 | 91 | 1011.4 |
| 20260506231404 | 42 | 21 | 0.9 | 1.7 | 0.00 | 0.84 | 0.58 | 91 | 1011.2 |
| 20260506230904 | 42 | 99 | 0.9 | 4.3 | 0.00 | 0.85 | 0.58 | 90 | 1011.2 |
| 20260506230404 | 42 | 358 | 1.7 | 5.2 | 0.00 | 0.86 | 0.58 | 91 | 1011.2 |
| 20260506225904 | 42 | 31 | 1.7 | 4.3 | 0.00 | 0.87 | 0.58 | 91 | 1011.1 |
| 20260506225404 | 42 | 22 | 1.7 | 4.3 | 0.01 | 0.88 | 0.58 | 91 | 1011.0 |
| 20260506224904 | 42 | 35 | 0.9 | 6.1 | 0.01 | 0.89 | 0.58 | 91 | 1011.0 |
| 20260506223904 | 41 | 52 | 0.9 | 4.3 | 0.02 | 0.90 | 0.58 | 91 | 1010.8 |
| 20260506223404 | 41 | 15 | 4.3 | 7.8 | 0.02 | 0.91 | 0.58 | 91 | 1010.8 |
| 20260506222906 | 41 | 28 | 1.7 | 4.3 | 0.02 | 0.91 | 0.58 | 91 | 1010.8 |
| 20260506222403 | 41 | 13 | 0.9 | 4.3 | 0.02 | 0.92 | 0.58 | 91 | 1010.6 |
| 20260506221903 | 41 | 33 | 3.5 | 8.7 | 0.02 | 0.93 | 0.58 | 90 | 1010.5 |
| 20260506220903 | 41 | 353 | 2.6 | 6.1 | 0.03 | 0.95 | 0.58 | 90 | 1010.6 |
| 20260506220404 | 42 | 347 | 5.2 | 8.7 | 0.06 | 0.97 | 0.58 | 89 | 1010.8 |
| 20260506215904 | 42 | 338 | 4.3 | 8.7 | 0.07 | 0.98 | 0.58 | 89 | 1010.6 |
| 20260506214904 | 43 | 357 | 5.2 | 10.4 | 0.10 | 1.00 | 0.57 | 89 | 1010.2 |
| 20260506212905 | 45 | 0 | 6.1 | 12.2 | 0.12 | 1.05 | 0.56 | 88 | 1009.7 |
| 20260506212404 | 46 | 352 | 5.2 | 11.3 | 0.12 | 1.06 | 0.56 | 88 | 1009.5 |
| 20260506211904 | 46 | 2 | 6.1 | 10.4 | 0.12 | 1.08 | 0.56 | 88 | 1009.2 |
| 20260506211404 | 47 | 357 | 5.2 | 10.4 | 0.12 | 1.09 | 0.56 | 87 | 1009.2 |
| 20260506210904 | 48 | 326 | 2.6 | 7.0 | 0.11 | 1.09 | 0.55 | 88 | 1009.1 |
| 20260506205904 | 49 | 210 | 0.0 | 0.0 | 0.07 | 1.09 | 0.51 | 87 | 1009.0 |
| 20260506205404 | 49 | 210 | 0.0 | 0.9 | 0.05 | 1.10 | 0.49 | 87 | 1008.9 |
| 20260506204404 | 49 | 203 | 0.0 | 0.0 | 0.01 | 1.09 | 0.45 | 86 | 1008.9 |
| 20260506203904 | 49 | 203 | 0.9 | 1.7 | 0.01 | 1.10 | 0.45 | 86 | 1008.9 |
| 20260506203403 | 49 | 186 | 0.0 | 0.0 | 0.00 | 1.09 | 0.44 | 86 | 1008.9 |
| 20260506202904 | 49 | 186 | 0.0 | 1.7 | 0.00 | 1.09 | 0.44 | 86 | 1008.9 |
| 20260506202404 | 49 | 203 | 0.9 | 4.3 | 0.00 | 1.09 | 0.44 | 84 | 1008.9 |
| 20260506201904 | 49 | 203 | 0.9 | 2.6 | 0.00 | 1.10 | 0.44 | 85 | 1008.9 |
| 20260506201403 | 49 | 162 | 0.9 | 2.6 | 0.00 | 1.10 | 0.44 | 85 | 1008.9 |
| 20260506200904 | 49 | 195 | 0.9 | 2.6 | 0.00 | 1.10 | 0.44 | 86 | 1008.9 |
| 20260506200403 | 49 | 197 | 2.6 | 2.6 | 0.00 | 1.10 | 0.44 | 84 | 1008.9 |
| 20260506195904 | 49 | 209 | 0.9 | 2.6 | 0.00 | 1.10 | 0.44 | 85 | 1008.9 |
| 20260506195404 | 49 | 205 | 0.9 | 2.6 | 0.00 | 1.10 | 0.44 | 85 | 1009.0 |
| 20260506194904 | 49 | 215 | 1.7 | 2.6 | 0.00 | 1.10 | 0.44 | 85 | 1009.1 |
| 20260506193904 | 49 | 203 | 0.9 | 1.7 | 0.00 | 1.10 | 0.44 | 86 | 1009.1 |
| 20260506193403 | 49 | 180 | 0.9 | 2.6 | 0.00 | 1.10 | 0.44 | 85 | 1009.0 |
| 20260506192404 | 49 | 208 | 1.7 | 2.6 | 0.00 | 1.10 | 0.44 | 84 | 1009.1 |
| 20260506191904 | 50 | 200 | 0.0 | 2.6 | 0.00 | 1.10 | 0.44 | 86 | 1009.0 |
| 20260506191404 | 50 | 206 | 0.9 | 2.6 | 0.00 | 1.10 | 0.44 | 85 | 1009.0 |
| 20260506190904 | 50 | 207 | 1.7 | 2.6 | 0.00 | 1.10 | 0.44 | 85 | 1009.0 |
| 20260506185904 | 50 | 205 | 1.7 | 2.6 | 0.00 | 1.10 | 0.44 | 88 | 1008.9 |
| 20260506185404 | 50 | 127 | 0.0 | 5.2 | 0.00 | 1.10 | 0.44 | 88 | 1008.9 |
| 20260506184904 | 50 | 213 | 1.7 | 2.6 | 0.00 | 1.10 | 0.44 | 92 | 1008.9 |
| 20260506184404 | 49 | 215 | 1.7 | 6.1 | 0.00 | 1.10 | 0.44 | 92 | 1008.8 |
| 20260506183903 | 49 | 137 | 0.9 | 2.6 | 0.00 | 1.10 | 0.44 | 92 | 1008.9 |
| 20260506183403 | 48 | 160 | 0.9 | 2.6 | 0.00 | 1.10 | 0.44 | 93 | 1009.0 |
| 20260506182403 | 48 | 189 | 0.0 | 0.9 | 0.00 | 1.10 | 0.44 | 92 | 1009.2 |
| 20260506181903 | 47 | 184 | 0.0 | 0.9 | 0.00 | 1.10 | 0.44 | 92 | 1009.2 |
| 20260506181403 | 47 | 129 | 0.0 | 0.9 | 0.00 | 1.10 | 0.44 | 92 | 1009.2 |
| 20260506180903 | 47 | 130 | 0.0 | 0.9 | 0.00 | 1.10 | 0.44 | 92 | 1009.3 |
| 20260506180403 | 47 | 129 | 0.0 | 0.9 | 0.00 | 1.10 | 0.44 | 92 | 1009.2 |
| 20260506175903 | 46 | 125 | 0.0 | 0.9 | 0.00 | 1.10 | 0.44 | 92 | 1009.0 |
| 20260506175403 | 46 | 85 | 0.9 | 1.7 | 0.00 | 1.10 | 0.44 | 92 | 1009.1 |
| 20260506174903 | 47 | 111 | 0.0 | 0.9 | 0.00 | 1.10 | 0.44 | 92 | 1009.2 |
| 20260506174403 | 46 | 111 | 0.0 | 1.7 | 0.00 | 1.10 | 0.44 | 92 | 1009.2 |
| 20260506173904 | 46 | 180 | 0.0 | 0.0 | 0.00 | 1.10 | 0.44 | 92 | 1009.3 |
| 20260506171903 | 46 | 89 | 0.0 | 0.0 | 0.00 | 1.10 | 0.44 | 93 | 1009.2 |
| 20260506171403 | 46 | 89 | 0.0 | 0.9 | 0.00 | 1.10 | 0.44 | 93 | 1009.2 |
| 20260506170904 | 46 | 89 | 0.0 | 0.0 | 0.00 | 1.10 | 0.44 | 92 | 1009.1 |
| 20260506170404 | 46 | 89 | 0.0 | 0.9 | 0.00 | 1.10 | 0.44 | 92 | 1009.0 |
| 20260506165904 | 45 | 89 | 0.0 | 0.9 | 0.00 | 1.10 | 0.44 | 92 | 1009.1 |
| 20260506165404 | 46 | 89 | 0.0 | 0.9 | 0.00 | 1.10 | 0.44 | 93 | 1009.0 |
| 20260506164903 | 46 | 89 | 0.0 | 0.0 | 0.00 | 1.10 | 0.44 | 93 | 1009.0 |
| 20260506164403 | 46 | 89 | 0.0 | 1.7 | 0.00 | 1.10 | 0.44 | 93 | 1008.9 |
| 20260506163903 | 45 | 85 | 0.0 | 0.9 | 0.00 | 1.10 | 0.44 | 92 | 1008.9 |
| 20260506163403 | 45 | 84 | 0.0 | 0.9 | 0.00 | 1.10 | 0.44 | 93 | 1008.9 |
| 20260506162903 | 46 | 85 | 0.0 | 0.9 | 0.00 | 1.10 | 0.44 | 93 | 1009.0 |
| 20260506162403 | 46 | 84 | 0.0 | 0.9 | 0.00 | 1.10 | 0.44 | 93 | 1009.1 |
| 20260506161904 | 46 | 85 | 0.0 | 0.9 | 0.00 | 1.10 | 0.44 | 93 | 1009.1 |
| 20260506161404 | 46 | 89 | 0.0 | 0.0 | 0.00 | 1.10 | 0.44 | 93 | 1009.0 |
| 20260506160404 | 46 | 92 | 0.0 | 0.9 | 0.00 | 1.10 | 0.44 | 93 | 1008.9 |
| 20260506155904 | 46 | 73 | 0.0 | 1.7 | 0.00 | 1.10 | 0.44 | 93 | 1008.9 |
| 20260506155404 | 45 | 34 | 0.0 | 0.9 | 0.00 | 1.10 | 0.44 | 93 | 1008.9 |
| 20260506154903 | 45 | 94 | 0.0 | 0.0 | 0.00 | 1.10 | 0.44 | 93 | 1008.9 |
| 20260506154403 | 45 | 94 | 0.0 | 0.9 | 0.00 | 1.10 | 0.44 | 93 | 1009.0 |
| 20260506153904 | 45 | 82 | 0.9 | 2.6 | 0.00 | 1.10 | 0.44 | 93 | 1009.0 |
| 20260506153404 | 46 | 102 | 0.9 | 1.7 | 0.00 | 1.10 | 0.44 | 93 | 1008.8 |
| 20260506152904 | 46 | 104 | 0.0 | 1.7 | 0.01 | 1.10 | 0.44 | 93 | 1008.6 |
| 20260506152404 | 46 | 104 | 0.9 | 1.7 | 0.01 | 1.10 | 0.44 | 93 | 1008.6 |
| 20260506151903 | 45 | 98 | 0.9 | 1.7 | 0.01 | 1.10 | 0.44 | 93 | 1008.5 |
| 20260506151404 | 45 | 93 | 0.0 | 0.9 | 0.01 | 1.10 | 0.44 | 93 | 1008.7 |
| 20260506150903 | 45 | 93 | 0.0 | 0.9 | 0.01 | 1.10 | 0.44 | 93 | 1008.7 |
| 20260506145904 | 45 | 89 | 0.9 | 4.3 | 0.02 | 1.10 | 0.44 | 93 | 1008.6 |
| 20260506145404 | 45 | 105 | 0.9 | 2.6 | 0.02 | 1.10 | 0.44 | 93 | 1008.6 |
| 20260506144904 | 45 | 93 | 0.9 | 2.6 | 0.02 | 1.10 | 0.44 | 93 | 1008.5 |
| 20260506143903 | 45 | 104 | 0.0 | 0.9 | 0.03 | 1.10 | 0.44 | 93 | 1008.5 |
| 20260506143403 | 45 | 104 | 0.0 | 0.0 | 0.03 | 1.10 | 0.44 | 93 | 1008.6 |
| 20260506142903 | 44 | 104 | 0.0 | 1.7 | 0.02 | 1.09 | 0.43 | 93 | 1008.6 |
| 20260506142404 | 45 | 88 | 0.9 | 1.7 | 0.02 | 1.09 | 0.43 | 93 | 1008.7 |
| 20260506141903 | 45 | 143 | 0.0 | 0.9 | 0.02 | 1.09 | 0.43 | 93 | 1008.6 |
| 20260506141403 | 45 | 143 | 0.0 | 0.9 | 0.02 | 1.09 | 0.43 | 93 | 1008.6 |
| 20260506140903 | 45 | 91 | 0.0 | 0.9 | 0.02 | 1.09 | 0.43 | 93 | 1008.5 |
| 20260506140403 | 44 | 90 | 0.9 | 2.6 | 0.01 | 1.08 | 0.42 | 93 | 1008.5 |
| 20260506135903 | 44 | 111 | 0.0 | 0.9 | 0.01 | 1.08 | 0.42 | 93 | 1008.4 |
| 20260506135404 | 44 | 98 | 0.0 | 0.9 | 0.01 | 1.08 | 0.42 | 93 | 1008.4 |
| 20260506134903 | 44 | 99 | 0.0 | 1.7 | 0.01 | 1.08 | 0.42 | 93 | 1008.5 |
| 20260506134404 | 44 | 85 | 0.9 | 2.6 | 0.00 | 1.07 | 0.41 | 93 | 1008.4 |
| 20260506133903 | 44 | 108 | 0.0 | 0.9 | 0.01 | 1.07 | 0.41 | 93 | 1008.3 |
| 20260506132404 | 44 | 119 | 0.0 | 0.9 | 0.01 | 1.07 | 0.41 | 93 | 1008.2 |
| 20260506131904 | 44 | 124 | 0.0 | 0.9 | 0.02 | 1.07 | 0.41 | 93 | 1008.1 |
| 20260506131404 | 44 | 123 | 0.0 | 0.9 | 0.02 | 1.07 | 0.41 | 93 | 1008.1 |
| 20260506130903 | 44 | 127 | 0.0 | 0.9 | 0.02 | 1.07 | 0.41 | 93 | 1008.1 |
| 20260506130403 | 44 | 142 | 0.0 | 0.9 | 0.02 | 1.07 | 0.41 | 93 | 1008.1 |
| 20260506125403 | 44 | 158 | 0.0 | 0.0 | 0.03 | 1.07 | 0.41 | 93 | 1008.0 |
| 20260506124904 | 44 | 161 | 0.0 | 0.0 | 0.03 | 1.07 | 0.41 | 93 | 1007.9 |
| 20260506123404 | 44 | 150 | 0.0 | 0.9 | 0.02 | 1.06 | 0.40 | 93 | 1007.8 |
| 20260506122904 | 43 | 151 | 0.0 | 0.9 | 0.03 | 1.06 | 0.40 | 93 | 1007.9 |
| 20260506122404 | 43 | 149 | 0.0 | 0.9 | 0.03 | 1.06 | 0.40 | 93 | 1007.7 |
| 20260506121404 | 43 | 135 | 0.0 | 0.9 | 0.02 | 1.05 | 0.39 | 93 | 1007.7 |